Regional Weather Roundup
Issued by NWS Albany, NY

Home | Current Version | Previous Version | Text Only | Print | Product List | Glossary On
Versions: 1 2 3 4 5 6 7 8 9 10 11 12 13 14 15 16 17 18 19 20 21 22 23 24 25 26 27 28 29 30 31 32 33 34 35 36 37 38 39 40 41 42 43 44 45 46 47 48 49 50
000
ASUS41 KALY 262110
RWRALY

NEW YORK STATE HOURLY WEATHER ROUNDUP
NATIONAL WEATHER SERVICE ALBANY NY
500 PM EDT SUN MAR 26 2017

NOTE: "FAIR" INDICATES FEW OR NO CLOUDS BELOW 12,000 FEET WITH NO
SIGNIFICANT WEATHER AND/OR NO OBSTRUCTIONS TO VISIBILITY.

NYZ032-033-038>043-046>054-057>066-NYZ062>081-082-084-262200-
EAST


CITY           SKY/WX    TMP DP  RH WIND       PRES   REMARKS
ALBANY         CLOUDY    39  27  62 SE6       30.39F WCI  35
GLENS FALLS    CLOUDY    37  24  59 S5        30.40F WCI  33
POUGHKEEPSIE   CLOUDY    37  31  78 NE7       30.40F WCI  32
NEWBURGH       CLOUDY    39  34  81 VRB6      30.40F WCI  35
MONTGOMERY     CLOUDY    38  33  82 N6        30.38F WCI  33
WHITE PLAINS   CLOUDY    39  32  76 E12       30.39F WCI  32
ISLIP          CLOUDY    41  35  79 E13G22    30.39F
NEW YORK CITY  CLOUDY    42  34  73 NE14      30.40F
CENTRAL PARK   CLOUDY    41  33  73 NE6       30.42S
$$

NYZ005>009-017-018-044>046-055-056-262200-
CENTRAL


CITY           SKY/WX    TMP DP  RH WIND       PRES   REMARKS
FULTON         MOSUNNY   40  30  67 SE10G20   30.16F WCI  33
SYRACUSE       CLOUDY    42  35  76 SE18      30.19F
ROME           CLOUDY    36  30  79 E15       30.28F WCI  27
ELMIRA         CLOUDY    46  37  71 SW10      30.17F
BINGHAMTON     CLOUDY    34  32  92 SE16      30.20F WCI  24
MONTICELLO     CLOUDY    32  30  93 E10       30.34F WCI  24
$$

NYZ026>034-041>043-087-262200-
NORTH


CITY           SKY/WX    TMP DP  RH WIND       PRES   REMARKS
WATERTOWN      LGT RAIN  41  38  89 NE5       30.18F
FORT DRUM      NOT AVBL
MASSENA        MIX PCPN  32  22  66 NE12      30.31F WCI  23
SARANAC LAKE   CLOUDY    34  31  88 S8        30.22F WCI  27
PLATTSBURGH    CLOUDY    36  27  69 SE14      30.35F WCI  27
$$

NYZ001>004-010>016-019>021-085-262200-
WEST


CITY           SKY/WX    TMP DP  RH WIND       PRES   REMARKS
NIAGARA FALLS  CLOUDY    56  44  64 NE7       29.99F
BUFFALO        CLOUDY    59  46  62 S18       30.00F
DUNKIRK        CLOUDY    59  45  59 SE15G23   29.97F
JAMESTOWN      MOSUNNY   54  43  66 S13G20    30.01F
WELLSVILLE     CLOUDY    43  39  86 S14G26    30.10F
ROCHESTER      CLOUDY    53  42  66 S13       30.07F
PENN YAN       CLOUDY    47  38  71 S13       30.13F
$$

             KEY
       WCI = WIND CHILL INDEX
       VSB = VISIBILITY
       HX  = HEAT INDEX
$$



USA.gov is the U.S. government's official web portal to all federal, state and local government web resources and services.